TimeCDT,TemperatureF,Dew PointF,Humidity,Sea Level PressureIn,VisibilityMPH,Wind Direction,Wind SpeedMPH,Gust SpeedMPH,PrecipitationIn,Events,Conditions,WindDirDegrees,DateUTC
12:52 AM,41.0,28.0,60,30.36,10.0,Variable,3.5,-,N/A,,Overcast,0,2012-10-07 05:52:00
1:52 AM,37.0,28.0,70,30.37,10.0,Calm,Calm,-,N/A,,Clear,0,2012-10-07 06:52:00
2:52 AM,30.9,27.0,85,30.37,10.0,Calm,Calm,-,N/A,,Clear,0,2012-10-07 07:52:00
3:52 AM,30.0,26.1,85,30.37,10.0,Calm,Calm,-,N/A,,Clear,0,2012-10-07 08:52:00
4:52 AM,30.0,27.0,88,30.35,10.0,Calm,Calm,-,N/A,,Clear,0,2012-10-07 09:52:00
5:52 AM,27.0,25.0,92,30.34,10.0,SW,4.6,-,N/A,,Clear,220,2012-10-07 10:52:00
6:52 AM,28.9,27.0,92,30.37,10.0,Calm,Calm,-,N/A,,Clear,0,2012-10-07 11:52:00
7:52 AM,28.0,25.0,88,30.37,10.0,Calm,Calm,-,N/A,,Clear,0,2012-10-07 12:52:00
8:52 AM,35.1,30.9,85,30.37,10.0,WSW,3.5,-,N/A,,Clear,250,2012-10-07 13:52:00
9:52 AM,41.0,34.0,76,30.37,10.0,WSW,6.9,-,N/A,,Clear,250,2012-10-07 14:52:00
10:52 AM,48.0,33.1,56,30.34,10.0,WNW,4.6,-,N/A,,Clear,300,2012-10-07 15:52:00
11:52 AM,53.1,30.9,43,30.31,10.0,West,8.1,-,N/A,,Clear,270,2012-10-07 16:52:00
12:52 PM,54.0,27.0,35,30.28,10.0,West,6.9,-,N/A,,Clear,260,2012-10-07 17:52:00
1:52 PM,55.0,27.0,34,30.25,10.0,SSW,5.8,17.3,N/A,,Clear,200,2012-10-07 18:52:00
2:52 PM,57.0,27.0,32,30.22,10.0,SW,9.2,20.7,N/A,,Clear,230,2012-10-07 19:52:00
3:52 PM,55.9,27.0,33,30.19,10.0,WSW,10.4,19.6,N/A,,Partly Cloudy,240,2012-10-07 20:52:00
4:52 PM,57.0,28.9,34,30.17,10.0,West,6.9,-,N/A,,Partly Cloudy,280,2012-10-07 21:52:00
5:52 PM,54.0,28.9,38,30.17,10.0,WSW,9.2,-,N/A,,Partly Cloudy,240,2012-10-07 22:52:00
6:52 PM,51.1,30.0,44,30.17,10.0,WSW,6.9,-,N/A,,Partly Cloudy,240,2012-10-07 23:52:00
7:52 PM,45.0,30.9,58,30.17,10.0,WSW,3.5,-,N/A,,Clear,240,2012-10-08 00:52:00
8:52 PM,43.0,32.0,65,30.18,10.0,SW,3.5,-,N/A,,Clear,230,2012-10-08 01:52:00
9:52 PM,37.0,30.0,76,30.17,10.0,SW,3.5,-,N/A,,Clear,230,2012-10-08 02:52:00
10:52 PM,34.0,28.9,82,30.16,10.0,Calm,Calm,-,N/A,,Clear,0,2012-10-08 03:52:00
11:52 PM,32.0,27.0,82,30.15,10.0,Calm,Calm,-,N/A,,Clear,0,2012-10-08 04:52:00